This is the latest recevied weather packets stored in our database for station/object ALTO-WX. If no packets are shown the sender has not sent any weather packets the latest 10 day(s).
| Time | Temp. | Humidity | Pressure | Rain* | Wind** | Luminosity | Snow |
|---|---|---|---|---|---|---|---|
| 1777937453 | 21.11° C | 35% | 969.9 hPa | 0 mm | - | - | - |
| 1777936535 | 21.67° C | 35% | 969.9 hPa | 0 mm | - | - | - |
| 1777935661 | 21.67° C | 35% | 969.9 hPa | 0 mm | - | - | - |
| 1777934735 | 21.67° C | 37% | 969.8 hPa | 0 mm | - | - | - |
| 1777933855 | 22.22° C | 37% | 970.2 hPa | 0 mm | - | - | - |
| 1777932935 | 22.22° C | 37% | 970.2 hPa | 0 mm | - | - | - |
| 1777932070 | 22.22° C | 37% | 970.2 hPa | 0 mm | - | - | - |
| 1777931133 | 22.22° C | 34% | 971.1 hPa | 0 mm | - | - | - |
| 1777930256 | 22.22° C | 34% | 971.1 hPa | 0 mm | - | - | - |
| 1777929334 | 22.22° C | 32% | 970 hPa | 0 mm | - | - | - |
| 1777928466 | 22.22° C | 32% | 970 hPa | 0 mm | - | - | - |
| 1777927539 | 22.22° C | 29% | 970.8 hPa | 0 mm | - | - | - |
| 1777926649 | 22.78° C | 29% | 970.8 hPa | 0 mm | - | - | - |
| 1777925740 | 22.78° C | 29% | 970.8 hPa | 0 mm | - | - | - |
| 1777924864 | 22.78° C | 32% | 970.1 hPa | 0 mm | - | - | - |
| 1777923940 | 22.78° C | 26% | 970.9 hPa | 0 mm | - | - | - |
| 1777923059 | 22.78° C | 26% | 970.9 hPa | 0 mm | - | - | - |
| 1777922141 | 22.78° C | 26% | 970.9 hPa | 0 mm | - | - | - |
| 1777921268 | 22.78° C | 26% | 970.9 hPa | 0 mm | - | - | - |
| 1777920336 | 22.78° C | 25% | 971.9 hPa | 0 mm | - | - | - |
| 1777919460 | 22.78° C | 25% | 971.7 hPa | 0 mm | - | - | - |
| 1777918540 | 22.78° C | 25% | 971.7 hPa | 0 mm | - | - | - |
| 1777917673 | 22.22° C | 25% | 971.7 hPa | 0 mm | - | - | - |
| 1777916739 | 22.22° C | 33% | 972.5 hPa | 0 mm | - | - | - |
| 1777915855 | 22.22° C | 32% | 972.4 hPa | 0 mm | - | - | - |
* Rain latest hour (hover to see other rain measurements)
** Current wind speed in m/s (hover to see current wind gust speed)